AFR48RY LFPG-LFPO

Flight info

Callsign AFR48RY
Flight time 0h 24m
Altitude 9000
Route PG822
Aircraft A320/M-SDE3FGHIRWY/LB1

Departure

Time 2026-05-05 13:22
Airport Charles de Gaulle International Airport (LFPG)

Arrival

Time 2026-05-05 13:46
Airport Paris-Orly Airport (LFPO)
Time Latitude Longitude Altitude Speed Heading
2026-05-05 12:08 49.00568 2.56664 355 ft 0 kts 175°
2026-05-05 13:02 49.00582 2.56662 354 ft 4 kts 178°
2026-05-05 13:02 49.00597 2.56662 354 ft 0 kts 184°
2026-05-05 13:03 49.00596 2.56662 354 ft 0 kts 184°
2026-05-05 13:03 49.00594 2.56662 354 ft 0 kts 184°
2026-05-05 13:04 49.00595 2.56662 354 ft 2 kts 184°
2026-05-05 13:05 49.00611 2.56665 354 ft 2 kts 192°
2026-05-05 13:05 49.00626 2.56676 354 ft 2 kts 253°
2026-05-05 13:05 49.00628 2.56682 354 ft 0 kts 255°
2026-05-05 13:13 49.00635 2.56616 354 ft 9 kts 276°
2026-05-05 13:13 49.00631 2.56523 354 ft 9 kts 265°
2026-05-05 13:14 49.00625 2.56425 354 ft 10 kts 265°
2026-05-05 13:14 49.00620 2.56317 354 ft 11 kts 265°
2026-05-05 13:14 49.00612 2.56188 354 ft 13 kts 265°
2026-05-05 13:14 49.00596 2.56042 354 ft 15 kts 252°
2026-05-05 13:15 49.00573 2.55927 354 ft 5 kts 261°
2026-05-05 13:15 49.00570 2.55873 354 ft 0 kts 265°
2026-05-05 13:16 49.00569 2.55864 354 ft 5 kts 265°
2026-05-05 13:16 49.00566 2.55798 354 ft 6 kts 266°
2026-05-05 13:16 49.00561 2.55695 354 ft 14 kts 265°
2026-05-05 13:16 49.00554 2.55543 354 ft 15 kts 268°
2026-05-05 13:17 49.00536 2.55398 354 ft 14 kts 237°
2026-05-05 13:17 49.00447 2.55333 354 ft 16 kts 176°
2026-05-05 13:17 49.00333 2.55377 354 ft 18 kts 165°
2026-05-05 13:17 49.00209 2.55433 354 ft 20 kts 164°
2026-05-05 13:18 49.00072 2.55493 354 ft 21 kts 165°
2026-05-05 13:18 48.99959 2.55539 354 ft 16 kts 158°
2026-05-05 13:18 48.99868 2.55633 354 ft 17 kts 129°
2026-05-05 13:18 48.99818 2.55768 354 ft 10 kts 127°
2026-05-05 13:19 48.99771 2.55801 354 ft 7 kts 174°
2026-05-05 13:19 48.99729 2.55808 354 ft 6 kts 174°
2026-05-05 13:19 48.99716 2.55810 354 ft 0 kts 174°
2026-05-05 13:20 48.99695 2.55814 354 ft 9 kts 172°
2026-05-05 13:20 48.99675 2.55818 354 ft 1 kts 173°
2026-05-05 13:20 48.99629 2.55829 353 ft 15 kts 165°
2026-05-05 13:20 48.99606 2.55953 354 ft 6 kts 85°
2026-05-05 13:21 48.99611 2.56041 354 ft 31 kts 85°
2026-05-05 13:21 48.99651 2.56788 355 ft 106 kts 85°
2026-05-05 13:21 48.99727 2.58212 361 ft 160 kts 85°
2026-05-05 13:21 48.99808 2.59948 927 ft 166 kts 86°
2026-05-05 13:22 48.99863 2.61752 1580 ft 174 kts 89°
2026-05-05 13:22 48.99895 2.63600 2258 ft 176 kts 88°
2026-05-05 13:22 48.99959 2.65540 2782 ft 194 kts 85°
2026-05-05 13:22 49.00113 2.67710 3251 ft 218 kts 83°
2026-05-05 13:23 49.00320 2.70101 3829 ft 235 kts 83°
2026-05-05 13:23 49.00501 2.72601 4657 ft 240 kts 85°
2026-05-05 13:23 49.00643 2.75159 5541 ft 244 kts 86°
2026-05-05 13:23 49.00776 2.77755 6397 ft 248 kts 86°
2026-05-05 13:24 49.00905 2.80414 6853 ft 254 kts 86°
2026-05-05 13:24 49.01013 2.83090 6977 ft 253 kts 92°
2026-05-05 13:24 49.00495 2.85583 7007 ft 250 kts 129°
2026-05-05 13:24 48.99112 2.87085 7010 ft 247 kts 164°
2026-05-05 13:25 48.97420 2.87237 7013 ft 247 kts 188°
2026-05-05 13:25 48.95711 2.86909 7010 ft 248 kts 187°
2026-05-05 13:25 48.93999 2.86587 7009 ft 248 kts 187°
2026-05-05 13:25 48.92285 2.86273 7008 ft 248 kts 187°
2026-05-05 13:26 48.90571 2.85963 7009 ft 248 kts 187°
2026-05-05 13:26 48.88856 2.85654 7009 ft 248 kts 187°
2026-05-05 13:26 48.87140 2.85346 7009 ft 248 kts 187°
2026-05-05 13:26 48.85426 2.85040 7010 ft 248 kts 187°
2026-05-05 13:27 48.83709 2.84735 7008 ft 248 kts 187°
2026-05-05 13:27 48.81995 2.84435 7010 ft 248 kts 187°
2026-05-05 13:27 48.80271 2.84129 7014 ft 257 kts 187°
2026-05-05 13:27 48.78406 2.83787 7009 ft 277 kts 187°
2026-05-05 13:28 48.76476 2.83430 7008 ft 281 kts 187°
2026-05-05 13:28 48.74534 2.83071 7008 ft 281 kts 187°
2026-05-05 13:28 48.72589 2.82711 7010 ft 282 kts 187°
2026-05-05 13:28 48.70670 2.82356 7008 ft 281 kts 187°
2026-05-05 13:29 48.68710 2.81994 6703 ft 279 kts 187°
2026-05-05 13:29 48.66814 2.81643 6292 ft 278 kts 187°
2026-05-05 13:29 48.64903 2.81291 5892 ft 276 kts 187°
2026-05-05 13:29 48.63006 2.80941 5497 ft 274 kts 187°
2026-05-05 13:30 48.61128 2.80566 5198 ft 270 kts 192°
2026-05-05 13:30 48.59441 2.79378 5173 ft 271 kts 220°
2026-05-05 13:30 48.58278 2.77157 5180 ft 272 kts 240°
2026-05-05 13:30 48.57367 2.74650 5178 ft 272 kts 242°
2026-05-05 13:31 48.56486 2.72120 5178 ft 272 kts 242°
2026-05-05 13:31 48.55608 2.69591 5177 ft 271 kts 242°
2026-05-05 13:31 48.54763 2.67151 5172 ft 253 kts 242°
2026-05-05 13:31 48.53974 2.64872 5174 ft 237 kts 242°
2026-05-05 13:32 48.53238 2.62743 5175 ft 222 kts 242°
2026-05-05 13:32 48.52510 2.60611 5176 ft 234 kts 246°
2026-05-05 13:32 48.52201 2.58309 5175 ft 220 kts 268°
2026-05-05 13:32 48.52222 2.55999 5179 ft 221 kts 271°
2026-05-05 13:33 48.52288 2.53617 5180 ft 235 kts 272°
2026-05-05 13:33 48.52364 2.51127 5179 ft 240 kts 272°
2026-05-05 13:33 48.52442 2.48606 5178 ft 240 kts 272°
2026-05-05 13:33 48.52520 2.46089 5177 ft 241 kts 272°
2026-05-05 13:34 48.52598 2.43569 5115 ft 239 kts 272°
2026-05-05 13:34 48.52676 2.41063 4800 ft 238 kts 272°
2026-05-05 13:34 48.52754 2.38570 4493 ft 237 kts 272°
2026-05-05 13:34 48.52830 2.36091 4157 ft 236 kts 272°
2026-05-05 13:35 48.52906 2.33624 3838 ft 235 kts 272°
2026-05-05 13:35 48.52982 2.31167 3544 ft 234 kts 272°
2026-05-05 13:35 48.53057 2.28725 3281 ft 232 kts 272°
2026-05-05 13:35 48.53132 2.26305 3174 ft 231 kts 272°
2026-05-05 13:36 48.53206 2.23875 3179 ft 232 kts 272°
2026-05-05 13:36 48.53281 2.21442 3177 ft 232 kts 272°
2026-05-05 13:36 48.53356 2.19003 3176 ft 233 kts 272°
2026-05-05 13:36 48.53430 2.16565 3177 ft 233 kts 272°
2026-05-05 13:37 48.53504 2.14126 3177 ft 232 kts 272°
2026-05-05 13:37 48.53578 2.11685 3178 ft 233 kts 272°
2026-05-05 13:37 48.53651 2.09250 3175 ft 232 kts 272°
2026-05-05 13:37 48.53725 2.06814 3177 ft 232 kts 272°
2026-05-05 13:38 48.53798 2.04375 3180 ft 233 kts 272°
2026-05-05 13:38 48.53872 2.01937 3179 ft 233 kts 272°
2026-05-05 13:38 48.53945 1.99501 3176 ft 232 kts 272°
2026-05-05 13:38 48.54017 1.97068 3177 ft 232 kts 272°
2026-05-05 13:39 48.54267 1.94670 3174 ft 232 kts 293°
2026-05-05 13:39 48.55235 1.92854 3175 ft 218 kts 327°
2026-05-05 13:39 48.56662 1.92241 3176 ft 216 kts
2026-05-05 13:39 48.58034 1.93063 3178 ft 216 kts 43°
2026-05-05 13:40 48.58908 1.94968 3186 ft 237 kts 62°
2026-05-05 13:40 48.59664 1.97114 3171 ft 224 kts 62°
2026-05-05 13:40 48.60373 1.99112 3170 ft 208 kts 62°
2026-05-05 13:40 48.61040 2.00973 3170 ft 196 kts 62°
2026-05-05 13:41 48.61688 2.02779 3197 ft 195 kts 62°
2026-05-05 13:41 48.62326 2.04560 3190 ft 187 kts 62°
2026-05-05 13:41 48.62926 2.06234 3193 ft 178 kts 62°
2026-05-05 13:41 48.63508 2.07860 3175 ft 175 kts 62°
2026-05-05 13:42 48.64084 2.09471 3176 ft 174 kts 62°
2026-05-05 13:42 48.64658 2.11077 3176 ft 174 kts 62°
2026-05-05 13:42 48.65234 2.12689 3053 ft 174 kts 62°
2026-05-05 13:42 48.65812 2.14307 2851 ft 179 kts 62°
2026-05-05 13:43 48.66413 2.15991 2643 ft 182 kts 62°
2026-05-05 13:43 48.67005 2.17652 2428 ft 176 kts 62°
2026-05-05 13:43 48.67562 2.19213 2222 ft 164 kts 62°
2026-05-05 13:43 48.68090 2.20695 1984 ft 156 kts 62°
2026-05-05 13:44 48.68604 2.22141 1769 ft 153 kts 62°
2026-05-05 13:44 48.69107 2.23553 1565 ft 151 kts 62°
2026-05-05 13:44 48.69605 2.24953 1371 ft 151 kts 62°
2026-05-05 13:44 48.70099 2.26346 1164 ft 150 kts 62°
2026-05-05 13:45 48.70592 2.27733 968 ft 149 kts 62°
2026-05-05 13:45 48.71077 2.29098 773 ft 149 kts 62°
2026-05-05 13:45 48.71569 2.30499 574 ft 148 kts 63°
2026-05-05 13:45 48.72065 2.31864 373 ft 148 kts 62°
2026-05-05 13:46 48.72527 2.33184 291 ft 128 kts 62°
2026-05-05 13:46 48.72854 2.34114 292 ft 67 kts 62°
2026-05-05 13:46 48.72983 2.34503 290 ft 31 kts 70°
2026-05-05 13:46 48.73017 2.34821 290 ft 31 kts 82°
2026-05-05 13:47 48.73042 2.35113 291 ft 22 kts 92°
2026-05-05 13:47 48.73033 2.35174 291 ft 0 kts 107°
2026-05-05 13:48 48.73031 2.35185 291 ft 0 kts 110°
2026-05-05 13:48 48.73029 2.35189 291 ft 2 kts 112°
2026-05-05 13:48 48.72986 2.35274 291 ft 12 kts 143°
2026-05-05 13:48 48.72937 2.35313 291 ft 12 kts 153°
2026-05-05 13:49 48.72891 2.35398 291 ft 9 kts 127°
2026-05-05 13:49 48.72838 2.35438 291 ft 8 kts 164°
2026-05-05 13:49 48.72783 2.35462 291 ft 8 kts 163°
2026-05-05 13:49 48.72755 2.35553 291 ft 11 kts 78°
2026-05-05 13:50 48.72770 2.35653 291 ft 5 kts 99°
2026-05-05 13:50 48.72746 2.35689 291 ft 5 kts 142°
2026-05-05 13:50 48.72726 2.35710 291 ft 2 kts 146°
2026-05-05 13:50 48.72724 2.35712 291 ft 0 kts 146°